QPF
0.00 0.00 0.00 0.00 0.00 0.00 0.00 0.00 0.00 0.00 0.00 0.00 0.00 0.00 0.00 0.00 0.00 0.00 0.00 0.00 0.00 0.00 0.00 0.00 0.00 0.00 0.00 0.00 0.00 0.01 0.02 0.04
0.00 0.00 0.00 0.00 0.00 0.00 0.00 0.00 0.00 0.00 0.00 0.00 0.00 0.00 0.00 0.00 0.00 0.00 0.00 0.00 0.00 0.00 0.00 0.00 0.00 0.00 0.00 0.00 0.00 0.00 0.01 0.03
0.00 0.00 0.00 0.00 0.00 0.00 0.00 0.00 0.00 0.00 0.00 0.00 0.00 0.00 0.00 0.00 0.00 0.00 0.00 0.00 0.00 0.00 0.00 0.00 0.00 0.00 0.00 0.00 0.00 0.00 0.00 0.03
0.00 0.00 0.00 0.00 0.00 0.00 0.00 0.00 0.00 0.00 0.00 0.00 0.00 0.00 0.00 0.00 0.00 0.00 0.00 0.00 0.00 0.00 0.00 0.00 0.00 0.00 0.00 0.00 0.00 0.00 0.00 0.01
0.00 0.00 0.00 0.00 0.00 0.00 0.00 0.00 0.00 0.00 0.00 0.00 0.00 0.00 0.00 0.00 0.00 0.00 0.00 0.00 0.00 0.00 0.00 0.00 0.00 0.00 0.00 0.00 0.00 0.00 0.00 0.00
0.00 0.00 0.00 0.00 0.00 0.00 0.00 0.00 0.00 0.00 0.00 0.00 0.00 0.00 0.00 0.00 0.00 0.00 0.00 0.00 0.00 0.00 0.00 0.00 0.00 0.00 0.00 0.00 0.00 0.00 0.00 0.00
0.00 0.00 0.00 0.00 0.00 0.00 0.00 0.00 0.00 0.00 0.00 0.00 0.00 0.00 0.00 0.00 0.00 0.00 0.00 0.00 0.00 0.00 0.00 0.00 0.00 0.00 0.00 0.00 0.01 0.00 0.00 0.00
0.00 0.00 0.00 0.00 0.00 0.00 0.00 0.00 0.00 0.00 0.00 0.00 0.00 0.00 0.00 0.00 0.00 0.00 0.00 0.00 0.00 0.00 0.00 0.00 0.00 0.00 0.00 0.00 0.00 0.01 0.00 0.00
0.00 0.00 0.00 0.00 0.00 0.00 0.00 0.00 0.00 0.00 0.00 0.00 0.00 0.00 0.00 0.00 0.00 0.00 0.00 0.00 0.00 0.00 0.00 0.00 0.00 0.00 0.00 0.00 0.01 0.01 0.00 0.00
0.00 0.00 0.00 0.00 0.00 0.00 0.00 0.00 0.00 0.00 0.00 0.00 0.00 0.00 0.00 0.00 0.00 0.00 0.00 0.00 0.00 0.00 0.00 0.00 0.00 0.00 0.00 0.00 0.00 0.00 0.01 0.01
0.00 0.00 0.00 0.00 0.00 0.00 0.00 0.00 0.00 0.00 0.00 0.00 0.00 0.00 0.00 0.00 0.00 0.00 0.00 0.00 0.00 0.00 0.00 0.00 0.00 0.00 0.00 0.00 0.00 0.00 0.00 0.01
0.00 0.00 0.00 0.00 0.00 0.00 0.00 0.00 0.00 0.00 0.00 0.00 0.00 0.00 0.00 0.00 0.00 0.00 0.00 0.00 0.00 0.00 0.00 0.00 0.00 0.00 0.00 0.00 0.00 0.00 0.02 0.02
0.00 0.00 0.00 0.00 0.00 0.00 0.00 0.00 0.00 0.00 0.00 0.00 0.00 0.00 0.00 0.00 0.00 0.00 0.00 0.00 0.00 0.00 0.00 0.00 0.00 0.00 0.00 0.00 0.01 0.01 0.02 0.05
0.00 0.00 0.00 0.00 0.00 0.00 0.00 0.00 0.00 0.00 0.00 0.00 0.00 0.00 0.00 0.00 0.00 0.00 0.00 0.00 0.00 0.00 0.00 0.00 0.00 0.00 0.00 0.03 0.06 0.03 0.01 0.01
0.00 0.00 0.00 0.00 0.00 0.00 0.00 0.00 0.00 0.00 0.00 0.00 0.00 0.00 0.00 0.00 0.00 0.00 0.00 0.00 0.00 0.00 0.00 0.00 0.00 0.00 0.00 0.01 0.03 0.03 0.01 0.00
0.00 0.00 0.00 0.00 0.00 0.00 0.00 0.00 0.00 0.00 0.00 0.00 0.00 0.00 0.00 0.00 0.00 0.00 0.00 0.00 0.00 0.00 0.00 0.00 0.00 0.00 0.00 0.02 0.04 0.05 0.04 0.03
0.00 0.00 0.00 0.00 0.00 0.00 0.00 0.00 0.00 0.00 0.00 0.00 0.00 0.00 0.00 0.00 0.00 0.00 0.00 0.00 0.00 0.00 0.00 0.00 0.00 0.00 0.00 0.02 0.04 0.08 0.09 0.11
0.00 0.00 0.00 0.00 0.00 0.00 0.00 0.00 0.00 0.00 0.00 0.00 0.00 0.00 0.00 0.00 0.00 0.00 0.00 0.00 0.00 0.00 0.00 0.00 0.00 0.00 0.00 0.01 0.01 0.02 0.06 0.09
0.02 0.01 0.00 0.00 0.00 0.00 0.00 0.00 0.00 0.00 0.00 0.00 0.00 0.00 0.00 0.00 0.00 0.00 0.00 0.00 0.00 0.00 0.00 0.00 0.00 0.00 0.00 0.00 0.01 0.01 0.04 0.06
MSLP
1021.70 1022.13 1022.37 1022.62 1022.75 1022.62 1022.31 1022.04 1021.80 1021.71 1021.62 1021.33 1020.73 1019.95 1019.66 1019.20 1018.93 1018.67 1018.55 1018.25 1018.04 1017.50 1016.89 1016.33 1015.93 1015.69 1015.43 1014.80 1014.14 1013.22 1012.59 1011.86
1021.95 1022.38 1022.61 1022.79 1022.87 1022.76 1022.61 1022.22 1022.16 1022.09 1021.78 1021.26 1020.31 1019.45 1019.11 1018.93 1018.87 1018.77 1018.49 1018.20 1018.06 1017.52 1016.82 1016.18 1015.73 1015.40 1015.22 1015.00 1014.59 1013.52 1012.07 1011.64
1021.71 1022.09 1022.51 1022.80 1022.92 1022.94 1022.73 1022.63 1022.55 1022.29 1021.83 1021.37 1020.67 1019.90 1019.37 1019.20 1018.94 1018.61 1018.51 1018.27 1018.01 1017.50 1016.88 1016.30 1015.75 1015.26 1015.09 1014.73 1014.52 1013.75 1012.53 1011.72
1021.70 1022.16 1022.61 1022.79 1022.73 1022.75 1022.81 1022.97 1022.87 1022.35 1021.73 1021.02 1020.42 1019.80 1019.38 1019.07 1018.96 1018.50 1018.14 1018.06 1017.92 1017.45 1016.99 1016.36 1015.79 1015.46 1014.93 1014.47 1014.09 1013.65 1012.81 1011.84
1021.65 1022.10 1022.48 1022.80 1022.88 1023.10 1023.07 1022.87 1022.58 1022.12 1021.78 1021.19 1020.68 1020.21 1019.82 1019.73 1019.26 1018.71 1018.06 1017.72 1017.50 1017.23 1016.75 1016.33 1015.84 1015.45 1014.80 1014.17 1013.52 1013.07 1012.81 1011.70
1021.59 1022.20 1022.60 1022.93 1023.20 1023.16 1022.88 1022.64 1022.34 1022.03 1021.62 1021.27 1020.82 1020.63 1020.40 1019.85 1019.16 1018.30 1017.67 1017.54 1017.56 1017.23 1016.49 1016.30 1015.85 1015.20 1014.47 1013.93 1013.21 1012.52 1012.11 1011.69
1021.70 1022.28 1022.72 1022.98 1023.06 1022.96 1022.79 1022.53 1022.03 1021.74 1021.45 1021.32 1021.35 1020.96 1020.13 1019.48 1018.83 1018.09 1017.75 1017.69 1017.28 1017.02 1016.37 1016.00 1015.43 1014.68 1014.11 1013.60 1012.78 1012.05 1011.46 1011.00
1021.52 1022.03 1022.44 1022.76 1023.00 1023.07 1022.69 1022.29 1021.91 1021.85 1021.76 1021.59 1021.19 1020.68 1020.04 1019.45 1018.83 1018.32 1017.99 1017.64 1017.23 1016.92 1016.23 1015.40 1014.95 1014.21 1013.70 1013.13 1012.29 1011.51 1010.94 1010.33
1021.50 1022.11 1022.58 1022.93 1023.17 1023.10 1022.82 1022.45 1022.16 1021.92 1021.44 1021.05 1020.81 1020.51 1019.81 1019.47 1019.20 1018.80 1018.26 1017.72 1017.34 1016.65 1015.95 1015.08 1014.38 1013.73 1013.17 1012.56 1011.77 1010.82 1010.28 1009.56
1021.35 1021.99 1022.53 1022.94 1023.01 1023.02 1022.98 1022.70 1022.29 1021.87 1021.45 1021.00 1020.64 1020.31 1020.02 1019.69 1019.40 1018.73 1018.21 1017.62 1017.09 1016.16 1015.55 1014.48 1013.82 1013.18 1012.59 1011.85 1011.12 1010.11 1009.47 1008.86
1021.19 1021.94 1022.41 1022.69 1022.93 1022.95 1022.82 1022.63 1022.30 1022.10 1021.74 1021.32 1020.95 1020.68 1020.13 1019.87 1019.45 1018.62 1017.86 1017.58 1016.85 1015.96 1015.13 1013.89 1013.32 1012.69 1012.12 1011.56 1010.66 1009.90 1008.84 1008.19
1021.19 1021.97 1022.43 1022.70 1022.81 1022.73 1022.65 1022.57 1022.42 1022.00 1021.83 1021.66 1021.36 1020.78 1020.21 1019.88 1019.45 1018.61 1017.95 1017.36 1016.57 1015.84 1014.94 1013.61 1012.94 1012.35 1011.81 1011.17 1010.28 1009.44 1008.20 1007.42
1020.98 1021.87 1022.60 1022.79 1022.89 1022.84 1022.79 1022.68 1022.52 1022.46 1022.30 1021.95 1021.50 1020.83 1020.37 1019.82 1019.27 1018.67 1017.94 1017.05 1016.34 1015.65 1014.74 1013.53 1012.63 1012.08 1011.50 1010.76 1009.74 1008.90 1008.02 1006.88
1021.20 1022.00 1022.80 1022.94 1023.06 1022.92 1022.88 1022.65 1022.51 1022.50 1022.44 1021.97 1021.46 1021.14 1020.60 1019.78 1019.27 1018.45 1017.68 1016.87 1016.24 1015.46 1014.48 1013.33 1012.31 1011.74 1011.10 1010.41 1009.45 1008.47 1007.55 1006.46
1021.30 1022.28 1023.09 1023.49 1023.64 1023.19 1023.10 1022.95 1022.97 1022.66 1022.39 1021.93 1021.56 1020.89 1020.52 1019.82 1019.33 1018.39 1017.56 1016.85 1016.20 1015.48 1014.47 1013.18 1011.95 1011.52 1010.87 1009.92 1009.11 1007.95 1006.77 1005.53
1021.42 1022.55 1023.35 1023.88 1023.75 1023.39 1023.24 1023.20 1023.07 1022.80 1022.16 1021.75 1021.52 1021.05 1020.55 1019.89 1019.16 1018.32 1017.58 1016.87 1016.12 1015.50 1014.46 1013.09 1011.74 1011.21 1010.62 1009.70 1008.79 1007.36 1005.83 1004.13
1021.54 1022.49 1023.38 1024.05 1023.84 1023.58 1023.43 1023.25 1023.28 1023.05 1022.42 1021.93 1021.51 1020.89 1020.35 1019.69 1018.87 1018.26 1017.72 1017.03 1015.99 1015.28 1014.22 1013.12 1011.79 1010.85 1010.41 1009.56 1008.57 1006.94 1005.15 1003.73
1021.73 1022.56 1023.42 1023.96 1024.07 1024.10 1023.62 1023.27 1023.22 1022.96 1022.60 1022.26 1021.34 1020.64 1020.13 1019.52 1018.86 1018.32 1017.91 1017.02 1016.00 1015.06 1014.10 1013.06 1011.77 1010.81 1010.07 1009.23 1007.96 1006.34 1004.60 1003.25
1022.13 1022.94 1023.86 1024.03 1024.12 1024.28 1024.10 1023.78 1022.80 1023.00 1022.45 1022.06 1021.51 1020.90 1020.22 1019.52 1018.80 1018.48 1017.84 1017.02 1016.21 1014.99 1014.08 1013.05 1012.04 1010.93 1010.06 1008.97 1007.51 1005.68 1004.04 1002.84
Thickness
5599 5595 5593 5591 5589 5588 5590 5592 5593 5593 5592 5592 5594 5597 5597 5599 5598 5597 5596 5597 5597 5600 5603 5606 5607 5606 5605 5609 5615 5621 5626 5631
5590 5587 5585 5582 5581 5581 5581 5584 5584 5583 5584 5586 5591 5593 5593 5591 5588 5586 5586 5586 5585 5589 5592 5594 5595 5596 5594 5591 5592 5600 5614 5617
5586 5583 5579 5576 5573 5572 5573 5573 5573 5573 5575 5576 5579 5582 5583 5581 5579 5577 5576 5575 5573 5575 5579 5580 5582 5583 5579 5576 5572 5574 5587 5594
5578 5575 5570 5568 5568 5566 5563 5560 5560 5562 5565 5569 5571 5572 5572 5572 5569 5568 5567 5564 5561 5562 5564 5566 5567 5564 5564 5560 5553 5553 5560 5572
5569 5566 5563 5559 5557 5554 5552 5552 5553 5554 5554 5557 5559 5559 5558 5555 5556 5557 5558 5555 5553 5551 5553 5551 5550 5549 5547 5544 5544 5544 5547 5558
5560 5555 5550 5547 5543 5542 5544 5544 5545 5544 5545 5545 5545 5543 5542 5544 5547 5550 5550 5545 5540 5538 5540 5535 5535 5536 5534 5532 5533 5537 5541 5545
5549 5543 5538 5536 5533 5533 5533 5534 5536 5534 5533 5532 5529 5528 5533 5535 5538 5539 5537 5533 5531 5526 5527 5524 5524 5526 5524 5522 5525 5530 5535 5538
5542 5537 5532 5526 5522 5519 5521 5523 5524 5521 5518 5516 5516 5518 5521 5523 5525 5525 5522 5521 5519 5516 5516 5518 5516 5516 5515 5513 5516 5522 5526 5531
5529 5523 5518 5513 5509 5507 5507 5508 5508 5506 5507 5507 5507 5508 5511 5510 5508 5507 5507 5507 5505 5506 5507 5509 5510 5509 5508 5506 5509 5515 5519 5523
5518 5511 5505 5500 5498 5495 5492 5491 5493 5494 5495 5496 5496 5496 5495 5494 5493 5495 5494 5494 5494 5498 5498 5502 5502 5502 5500 5501 5500 5506 5509 5513
5508 5499 5493 5489 5485 5483 5480 5478 5479 5480 5480 5480 5480 5479 5480 5479 5479 5482 5483 5480 5482 5486 5489 5494 5494 5493 5491 5488 5490 5492 5498 5501
5495 5486 5480 5477 5474 5471 5468 5466 5465 5467 5465 5463 5462 5462 5463 5463 5464 5467 5468 5468 5471 5473 5477 5483 5483 5482 5479 5478 5478 5478 5486 5489
5483 5474 5465 5462 5458 5456 5454 5453 5451 5449 5446 5445 5445 5447 5448 5449 5450 5450 5453 5457 5458 5461 5465 5470 5472 5471 5469 5468 5469 5469 5472 5475
5466 5455 5446 5444 5442 5441 5439 5439 5437 5433 5430 5430 5430 5429 5431 5434 5435 5437 5440 5444 5445 5448 5452 5457 5461 5460 5460 5458 5458 5459 5461 5463
5452 5439 5430 5424 5422 5424 5423 5421 5418 5417 5416 5416 5415 5417 5416 5419 5418 5423 5426 5428 5431 5433 5437 5444 5450 5448 5448 5449 5450 5451 5453 5457
5440 5426 5416 5409 5408 5409 5407 5405 5403 5401 5402 5402 5400 5400 5401 5402 5404 5408 5411 5413 5415 5417 5422 5430 5436 5436 5435 5437 5439 5444 5448 5456
5428 5417 5407 5396 5395 5395 5393 5391 5386 5385 5386 5386 5385 5387 5387 5388 5392 5393 5393 5395 5400 5402 5407 5413 5420 5424 5422 5422 5425 5434 5443 5449
5417 5405 5393 5386 5382 5379 5379 5377 5375 5373 5371 5369 5374 5375 5374 5375 5377 5377 5375 5379 5384 5388 5392 5398 5405 5409 5410 5411 5416 5425 5435 5440
5399 5391 5381 5375 5370 5365 5363 5361 5367 5360 5360 5358 5358 5359 5359 5360 5362 5359 5359 5362 5365 5372 5375 5381 5385 5391 5394 5398 5405 5417 5427 5432